Theta_e
329 329 328 328 327 326 326 326 325 325 325 324 323 322 321 320 320 320 320 321 320 320 320 321 322 324 328 323 331 338 363 366 358 358 348 343 337 334 326 328 331 329 332 333 335 334 334
328 328 328 327 327 326 325 325 325 324 324 324 323 322 321 321 320 320 320 321 320 320 320 321 323 324 326 319 342 340 350 353 355 353 347 344 339 340 331 328 326 331 333 333 335 333 335
327 327 327 326 326 325 325 324 324 323 323 323 323 322 321 320 320 319 319 320 319 319 320 321 324 329 324 322 344 345 354 353 355 353 344 345 345 339 335 327 333 331 329 332 332 333 332
327 327 326 326 325 324 323 323 323 322 322 322 322 322 320 319 319 319 318 318 318 319 320 323 326 330 320 329 346 342 350 350 355 355 351 349 346 341 334 335 330 326 328 322 330 332 333
327 326 326 326 325 324 323 322 322 322 322 321 321 321 319 318 317 317 317 317 318 320 324 327 330 328 319 341 340 344 346 343 347 349 348 346 341 335 332 319 319 324 314 319 323 333 329
327 326 326 325 325 323 322 321 321 321 321 321 321 320 318 317 316 315 315 316 321 323 327 332 330 317 321 321 338 343 346 343 341 341 339 336 332 328 327 320 310 315 313 318 320 326 329
326 326 326 325 323 322 321 321 321 321 321 320 320 320 318 316 316 315 317 327 324 323 322 317 316 316 318 328 341 338 341 338 338 331 324 327 324 316 322 322 319 318 317 317 323 329 327
326 325 324 323 322 321 321 320 320 321 320 320 320 319 318 315 314 314 320 327 325 325 313 318 317 320 323 330 328 332 338 330 328 321 325 323 320 324 323 322 319 317 315 318 324 327 327
323 323 322 321 321 321 320 320 319 319 319 319 319 318 317 314 313 317 327 325 330 328 318 314 318 317 320 326 322 328 331 328 323 321 322 320 316 324 322 320 317 316 315 317 319 325 326
322 321 321 320 320 321 320 319 319 319 319 318 318 318 316 313 312 327 324 330 331 329 313 310 313 317 320 320 319 332 332 327 324 320 322 322 325 321 319 317 317 312 319 319 322 320 314
321 321 320 320 320 320 319 319 319 318 318 317 317 317 316 310 324 326 328 331 331 327 302 312 313 324 321 316 319 324 332 327 320 320 321 318 320 319 317 317 318 318 321 321 323 321 317
321 321 320 320 320 319 319 319 319 318 317 317 315 314 315 317 324 330 331 331 327 312 300 309 315 313 314 316 318 322 324 329 327 320 321 321 325 321 321 319 321 323 322 322 323 320 303
321 320 320 320 319 319 319 318 318 317 316 315 312 313 315 327 328 333 331 326 314 306 312 308 310 313 313 313 315 317 317 318 315 310 312 318 318 322 323 318 323 323 319 308 305 309 306
320 320 319 319 319 318 319 319 318 317 316 314 311 311 317 326 333 331 328 320 309 310 311 314 313 313 310 313 314 315 314 312 316 314 313 311 310 318 322 319 317 319 317 305 303 306 309
319 319 319 319 318 318 318 318 317 316 315 313 312 326 332 336 331 331 323 314 312 312 312 311 312 309 310 312 313 315 314 313 315 316 311 312 311 321 321 321 319 316 313 318 310 313 307
320 319 319 319 318 318 318 318 317 316 315 313 332 335 333 334 334 329 320 308 313 316 314 314 308 311 308 310 309 311 312 316 315 318 320 317 305 314 319 319 319 317 319 311 311 302 303
319 319 319 319 318 318 318 318 317 315 314 312 331 331 334 335 333 325 315 315 316 319 319 316 312 310 310 310 311 310 311 314 316 316 319 319 315 313 315 313 313 314 312 314 313 312 306
318 318 319 319 318 318 318 318 316 314 312 319 334 325 336 336 324 324 317 319 313 321 323 321 321 317 313 312 311 311 311 315 318 318 314 319 315 310 311 317 318 317 314 314 308 308 312
317 317 318 318 318 318 318 317 316 314 312 324 331 331 337 334 316 319 321 319 321 320 320 320 319 320 320 314 311 313 316 320 319 317 316 318 313 308 310 313 315 313 315 315 314 314 311
316 316 317 318 319 318 317 316 315 314 313 322 331 323 328 330 329 321 318 318 317 321 320 321 320 322 318 316 319 315 316 318 319 320 327 321 315 312 307 311 315 312 313 315 314 308 311
314 315 316 317 318 318 317 316 316 315 314 324 334 327 328 320 321 321 321 319 315 316 320 322 320 318 319 313 315 315 318 318 320 317 319 319 311 314 312 316 315 313 313 313 314 314 307
314 315 315 316 317 318 317 316 316 315 313 332 326 327 331 326 324 322 314 319 317 317 317 317 316 317 319 318 318 315 318 317 317 321 320 320 313 316 313 314 313 312 314 315 315 315 316
314 313 314 315 316 317 316 316 316 315 316 330 331 333 330 318 322 320 320 320 318 319 320 320 318 317 317 320 322 323 324 323 322 320 318 317 313 313 308 315 314 309 314 315 317 318 318
313 313 313 313 314 316 316 316 316 316 314 326 332 330 327 321 321 320 321 321 318 319 318 320 320 318 325 326 324 323 323 322 321 322 322 317 316 315 310 314 304 316 324 321 318 320 321
313 312 312 313 313 313 315 316 316 316 316 323 329 329 327 322 324 323 322 321 321 322 319 320 322 326 328 323 316 315 316 317 319 321 321 321 317 313 310 308 312 316 320 320 318 319 325
312 312 312 312 312 312 313 315 317 316 316 322 328 333 329 323 321 325 323 323 319 320 321 321 327 328 326 320 315 310 308 313 312 315 322 320 320 314 313 306 304 317 324 328 327 316 329
312 312 312 312 312 312 314 316 317 317 317 319 326 330 328 323 326 325 322 322 324 323 320 323 323 321 324 318 313 311 309 315 310 311 314 315 315 312 311 309 311 321 323 327 313 321 329
312 311 311 311 312 312 314 317 319 318 319 319 326 333 327 324 326 328 326 326 326 325 319 325 321 319 319 316 314 316 314 317 313 317 315 313 312 311 313 311 307 324 320 315 329 332 335
311 311 311 311 311 312 313 317 319 317 320 318 321 334 331 324 324 330 330 331 329 329 326 326 321 323 323 320 321 321 318 321 316 312 321 314 317 315 314 318 329 327 328 332 335 335 336
Wind_Speed
17 18 18 17 17 17 15 15 15 15 15 14 13 11 10 8 7 6 7 7 6 8 8 10 9 10 9 11 7 12 12 15 18 17 12 14 14 9 9 2 3 5 7 4 9 8 10
17 18 19 18 18 17 16 16 16 16 16 15 13 10 10 8 7 6 6 7 6 8 8 9 9 9 8 12 7 16 16 19 16 17 10 11 7 8 3 5 8 7 5 7 9 9 9
18 18 19 19 19 19 17 17 17 17 17 16 14 11 9 8 7 6 6 6 7 8 9 9 9 9 13 4 6 15 17 18 16 14 7 4 8 14 1 5 6 11 8 5 1 4 6
18 19 19 19 19 19 18 16 17 18 17 16 15 12 9 7 7 6 6 6 8 8 10 9 8 10 2 2 7 16 17 16 10 9 10 6 10 15 10 24 3 15 10 10 6 6 5
18 18 19 20 20 20 17 17 19 19 18 17 15 12 10 7 6 5 6 7 9 9 10 9 9 11 7 3 13 16 15 14 11 10 7 8 15 19 9 15 5 12 9 9 9 12 5
17 18 19 20 20 18 18 18 18 18 17 17 14 11 10 7 5 4 6 8 4 8 8 9 9 10 9 12 16 16 13 12 12 11 13 17 16 17 12 16 7 18 12 7 6 6 10
17 19 20 20 22 21 21 19 19 20 19 18 15 11 9 5 5 5 5 7 8 8 10 8 15 7 14 16 12 13 16 12 14 11 16 16 14 22 19 10 5 2 3 3 9 9 8
19 20 22 23 23 23 23 23 22 21 20 19 16 11 8 4 4 5 9 9 11 8 12 7 5 2 5 15 14 16 16 15 16 16 18 13 17 12 6 3 6 4 2 7 9 10 8
21 22 23 23 24 24 23 22 22 22 20 19 16 10 7 2 3 5 12 8 6 7 8 11 10 11 10 15 14 19 18 18 14 17 17 18 20 1 4 8 10 11 10 7 4 12 6
22 22 23 24 24 23 23 22 22 21 20 18 15 10 6 1 4 7 8 3 5 5 7 12 11 8 8 14 16 20 18 15 15 17 14 12 11 5 5 9 11 7 4 3 10 14 9
23 23 24 24 23 23 23 23 23 22 22 19 16 10 6 10 12 7 7 5 4 6 6 16 13 11 12 17 14 15 18 18 16 17 9 14 9 4 8 11 10 9 1 9 15 16 6
23 24 24 23 25 23 26 25 24 24 23 20 16 6 7 7 8 11 6 4 7 10 6 8 10 13 15 16 12 20 19 16 12 15 12 19 7 4 11 5 3 5 11 11 12 5 15
21 24 24 23 26 25 25 26 25 26 24 22 13 6 10 8 3 4 7 7 10 4 12 12 16 18 19 15 12 13 20 18 16 12 13 14 18 13 8 12 5 13 15 8 4 9 5
20 24 25 25 26 27 26 26 26 27 26 22 10 6 14 10 8 8 8 11 11 3 3 14 14 16 16 13 12 18 19 18 21 20 13 14 15 13 11 13 13 14 6 5 6 2 10
21 23 24 25 27 27 27 27 27 28 28 23 3 7 8 6 12 7 9 12 8 7 4 9 13 12 10 10 4 12 15 17 16 19 19 17 17 15 7 6 9 13 8 8 7 13 15
19 19 20 22 25 27 26 27 29 30 30 24 6 8 6 7 8 8 9 9 7 4 2 13 12 12 10 13 10 11 13 12 11 14 20 16 10 20 9 9 11 16 15 10 6 6 3
19 20 20 21 22 26 28 29 30 30 35 18 8 8 8 9 7 9 6 10 7 8 7 8 5 10 11 13 12 12 13 9 12 12 13 15 10 14 8 11 16 9 13 13 2 14 10
20 20 21 21 22 23 26 28 28 28 33 8 8 9 7 7 9 7 8 5 5 10 7 1 7 9 2 8 6 4 9 3 9 7 11 17 10 9 17 7 6 11 13 14 8 3 14
19 20 21 21 22 23 24 26 27 24 20 10 8 5 7 7 8 2 8 7 10 7 7 8 5 7 4 6 3 2 8 5 7 7 3 12 11 10 14 12 8 11 10 12 16 6 19
19 20 21 21 22 22 24 25 26 28 19 7 7 6 7 9 8 13 5 3 12 1 5 4 5 4 11 8 6 4 11 6 6 5 9 6 18 13 7 10 11 7 7 5 17 11 11
19 20 20 20 21 21 23 24 26 30 30 6 4 3 6 6 6 6 5 2 0 4 1 2 3 6 11 3 10 7 10 10 8 6 6 11 11 25 18 14 12 3 7 4 11 12 7
19 19 19 20 20 21 22 24 25 29 38 6 7 6 9 13 4 9 6 3 11 5 6 2 7 2 7 6 13 8 5 9 10 12 12 14 8 5 6 1 4 8 7 7 8 6 9
18 19 20 19 20 20 20 22 22 22 25 6 8 7 7 6 13 9 7 4 5 4 4 4 7 9 7 8 8 10 9 9 3 10 7 13 7 1 7 6 7 11 12 7 6 2 13
17 18 19 19 20 20 19 20 20 17 15 9 7 8 8 12 9 9 1 4 4 3 9 2 4 6 8 6 10 11 12 10 5 9 10 8 8 3 11 6 9 12 8 4 7 6 0
16 17 18 19 20 20 19 18 18 17 12 11 8 6 7 10 7 1 9 9 4 6 10 6 3 6 6 9 10 10 10 12 11 12 10 10 9 5 4 7 11 11 8 3 7 7 5
16 16 17 18 19 20 19 18 17 17 13 10 8 4 7 8 9 8 3 8 11 9 10 8 3 7 8 9 8 6 11 11 14 9 11 13 9 9 7 8 8 12 9 4 10 8 12
16 16 17 17 18 19 19 18 17 15 13 9 9 9 6 9 13 5 7 8 6 6 8 6 2 7 10 9 9 8 11 3 7 10 7 12 9 11 10 7 7 11 4 4 12 7 2
14 15 16 17 18 18 19 20 17 12 12 9 9 5 7 8 14 8 10 9 5 7 9 9 6 9 6 7 8 3 8 6 9 4 4 9 10 11 10 8 6 5 1 7 7 2 3
14 14 15 16 17 17 18 19 18 9 8 7 8 2 5 8 8 12 13 15 13 12 10 4 7 5 6 5 2 4 4 2 10 7 7 7 6 6 2 6 8 4 3 3 5 6 2
Wind_Direction
353 349 347 349 350 356 350 345 341 338 332 326 322 322 317 314 308 298 289 284 284 285 294 296 301 309 275 218 80 129 148 156 178 221 196 216 233 226 218 131 137 117 121 144 120 154 112
352 348 344 347 350 354 352 345 345 341 335 329 323 322 321 312 302 291 281 278 274 278 280 287 293 300 243 243 104 141 167 166 182 217 211 258 11 336 323 69 126 83 156 136 177 157 147
349 347 343 347 349 354 352 350 346 342 338 335 325 322 321 315 301 286 271 271 273 270 274 277 283 269 258 42 142 164 170 184 202 221 223 232 301 281 85 151 149 140 143 135 176 152 182
347 345 340 346 349 355 355 350 344 339 335 330 328 327 323 325 308 282 269 266 263 261 269 267 268 247 272 130 179 181 181 200 211 228 266 314 275 269 271 45 314 134 172 172 156 223 217
345 342 340 347 349 354 350 350 344 336 334 333 331 326 325 321 302 278 266 260 258 251 258 257 226 236 169 133 195 185 193 202 201 221 237 281 260 263 221 125 223 149 182 125 167 231 259
339 340 342 346 349 350 350 349 341 336 336 335 330 327 331 318 291 269 274 270 284 223 214 212 270 229 170 198 174 182 194 211 205 221 240 241 244 250 246 146 168 126 258 144 121 170 243
340 341 342 345 350 352 349 346 345 342 340 336 334 328 327 313 279 262 233 184 192 178 201 286 175 245 134 135 146 189 194 213 215 238 240 218 260 149 231 43 36 13 344 154 125 178 207
343 345 346 349 351 350 348 349 346 341 338 337 335 332 325 307 291 290 267 253 36 354 177 212 325 321 155 168 179 183 184 203 213 231 218 241 251 69 26 334 293 195 199 133 124 172 238
347 347 347 348 347 347 348 344 342 340 338 334 331 329 321 304 291 244 250 320 320 308 224 167 192 204 175 208 198 175 196 216 216 235 244 253 358 3 322 298 291 97 121 173 189 185 199
347 347 347 346 347 344 344 342 341 339 335 332 328 319 305 224 263 192 219 167 259 288 240 140 182 198 182 208 218 172 205 217 234 255 253 268 220 328 290 274 325 60 68 162 179 201 198
347 348 347 345 344 341 342 341 341 341 338 334 324 299 257 232 320 231 49 306 296 232 216 154 141 123 177 208 165 178 198 223 263 220 268 242 215 246 262 32 317 60 359 188 189 227 97
348 348 347 344 345 341 343 342 340 342 342 339 332 279 188 197 228 278 304 293 244 234 126 150 138 182 178 211 175 161 197 236 244 269 237 269 311 234 302 301 299 294 232 207 196 115 322
346 347 347 346 345 345 343 343 341 343 344 344 341 226 197 312 357 337 283 246 242 259 154 148 173 170 194 192 162 175 191 203 228 219 231 234 247 243 224 262 203 237 245 329 83 255 150
347 347 347 347 346 348 345 344 343 342 343 345 346 176 216 269 304 275 262 244 257 26 167 175 164 186 203 175 185 182 189 208 216 240 220 227 203 208 209 239 283 269 301 229 314 7 113
346 346 346 347 347 347 346 345 345 342 341 341 306 201 235 209 220 248 260 250 44 43 119 156 172 187 182 201 171 203 198 215 197 232 249 184 231 199 205 234 255 287 255 314 295 342 84
338 339 341 344 347 346 347 347 347 342 339 338 255 223 166 155 165 215 249 37 91 47 267 167 179 205 181 185 209 207 183 214 201 201 253 289 50 293 199 234 248 277 324 284 245 210 331
340 338 337 341 343 347 348 348 349 345 337 337 242 238 115 176 200 227 239 71 111 119 298 317 148 209 197 172 220 200 163 136 224 178 227 274 180 177 181 212 214 191 246 247 74 272 265
341 338 338 339 342 343 347 348 349 350 340 289 285 254 142 193 240 199 57 68 278 136 193 191 303 324 293 113 225 185 173 153 176 190 201 247 304 198 205 120 311 308 294 286 227 294 308
346 344 340 339 338 342 345 345 345 350 5 312 285 329 152 217 1 210 131 90 15 78 25 41 54 355 272 202 201 233 87 79 194 233 211 216 251 175 193 170 190 238 220 264 291 269 228
346 345 344 341 341 341 344 344 342 340 352 291 273 253 160 212 213 281 127 132 134 48 71 23 2 237 187 186 239 159 123 126 157 264 353 303 252 85 15 304 317 167 201 245 271 52 356
345 346 345 344 341 342 344 344 343 339 337 286 259 7 359 250 191 307 299 328 347 118 175 325 163 348 326 195 174 189 115 141 181 142 231 248 289 126 213 228 210 21 308 233 280 103 122
345 346 345 346 345 344 346 345 345 343 332 247 321 338 346 290 191 251 138 188 315 109 325 43 291 319 305 18 353 109 326 195 151 176 233 244 212 226 289 139 274 266 202 276 290 328 296
341 344 345 345 346 343 346 346 346 351 338 324 5 305 273 249 255 233 297 64 336 333 161 329 309 280 220 59 326 327 309 331 30 280 240 272 294 219 270 113 309 234 257 208 310 291 304
338 341 344 345 345 344 343 343 343 349 359 315 333 309 273 264 221 278 298 261 258 312 295 32 283 267 44 315 277 246 251 247 252 257 268 265 282 302 284 43 250 69 38 360 308 339 104
330 334 337 340 342 341 339 338 338 338 340 313 308 315 306 280 299 232 235 244 213 174 242 285 97 329 285 265 247 227 219 217 224 230 259 257 295 295 277 249 253 150 170 280 250 181 144
326 329 332 336 336 337 334 331 332 331 338 308 306 311 282 298 262 352 249 235 259 214 175 225 191 284 284 267 239 237 235 220 214 200 234 261 235 277 257 277 293 65 62 11 308 256 150
324 325 328 330 333 335 331 324 321 323 329 313 297 292 274 276 278 299 251 298 227 312 286 125 220 261 225 263 242 224 236 0 258 223 191 237 245 240 230 249 251 79 54 355 254 56 56
323 322 325 328 329 332 332 328 321 310 327 313 305 280 286 286 293 284 277 280 235 245 273 79 238 206 266 252 268 171 273 163 240 340 204 222 214 239 242 268 228 34 253 258 57 28 57
317 318 321 324 326 329 332 331 324 311 319 320 273 186 316 262 297 329 293 291 286 292 307 283 291 316 353 293 313 347 239 180 247 186 192 252 206 259 244 59 92 79 46 55 8 103 132